Regional Weather Roundup
Issued by NWS Albany, NY

Current Version | Previous Version | Graphics & Text | Print | Product List | Glossary Off
Versions: 1 2 3 4 5 6 7 8 9 10 11 12 13 14 15 16 17 18 19 20 21 22 23 24 25 26 27 28

000
ASUS41 KALY 211110
RWRALY

NEW YORK STATE HOURLY WEATHER ROUNDUP
NATIONAL WEATHER SERVICE ALBANY NY
700 AM EDT THU SEP 21 2017

NOTE: "FAIR" INDICATES FEW OR NO CLOUDS BELOW 12,000 FEET WITH NO
SIGNIFICANT WEATHER AND/OR NO OBSTRUCTIONS TO VISIBILITY.

NYZ032-033-038>043-046>054-057>066-NYZ062>081-082-084-211200-
EAST


CITY           SKY/WX    TMP DP  RH WIND       PRES   REMARKS
ALBANY         PTCLDY    63  61  93 N3        30.07R
GLENS FALLS    FOG       56  56 100 CALM      30.08R VSB 3/4
POUGHKEEPSIE   CLOUDY    67  63  87 N6        30.02R
NEWBURGH       MOCLDY    68  64  88 NE12      30.04R
MONTGOMERY     CLOUDY    61  60  97 CALM      30.03R
WHITE PLAINS   MOCLDY    69  63  81 NW13      29.99R
ISLIP          CLOUDY    71  64  78 N10       29.94R
NEW YORK CITY  CLOUDY    73  65  75 NW14      29.97R
CENTRAL PARK   CLOUDY    71  64  78 VRB5      30.02R
$$

NYZ005>009-017-018-044>046-055-056-211200-
CENTRAL


CITY           SKY/WX    TMP DP  RH WIND       PRES   REMARKS
FULTON         FOG       60  58  92 S3        30.10R VSB 1/4
SYRACUSE       FOG       62  62 100 S3        30.10R VSB 1/2
ROME           PTCLDY    58  57  97 CALM      30.11R
ELMIRA         FOG       60  60 100 W5        30.12R VSB 1/2
BINGHAMTON     FOG       59  59 100 NW7       30.12R VSB 1/4
MONTICELLO     MOCLDY    63  60  90 NW8       30.10R
$$

NYZ026>034-041>043-087-211200-
NORTH


CITY           SKY/WX    TMP DP  RH WIND       PRES   REMARKS
WATERTOWN      FOG       56  56 100 NE3       30.11S VSB 1
FORT DRUM      NOT AVBL
OGDENSBURG       N/A     60  59  97 CALM      30.13R FOG
MASSENA        CLEAR     56  55  97 CALM      30.14R
SARANAC LAKE   FOG       47  47 100 CALM      30.14R VSB 1/4
PLATTSBURGH    CLOUDY    60  57  89 NW3       30.11R
$$

NYZ001>004-010>016-019>021-085-211200-
WEST


CITY           SKY/WX    TMP DP  RH WIND       PRES   REMARKS
NIAGARA FALLS  CLEAR     59  55  87 SE3       30.10F
BUFFALO        CLEAR     60  58  92 E7        30.12S
DUNKIRK        FOG       54  53  97 SE6       30.10F VSB 1
JAMESTOWN      FOG       57  57 100 SW3       30.15R VSB 1/4
WELLSVILLE     FOG       54  52  93 CALM      30.17R VSB 1/4
ROCHESTER      CLOUDY    58  57  97 W3        30.12R
PENN YAN       CLOUDY    62  59  90 CALM      30.13R
$$

             KEY
       WCI = WIND CHILL INDEX
       VSB = VISIBILITY
       HX  = HEAT INDEX
$$




USA.gov is the U.S. government's official web portal to all federal, state and local government web resources and services.